Location: Atherton
(17.2661°S, 145.4859°E)
Time: 23:10:52
(UTC+10:00)

Vanguard 1 - Pass Details

Date: 24 June 2025
Orbit: 649 x 3822 km, 34.2° (Epoch: 17 July)

Event Time Altitude Azimuth Distance (km) Brightness Sun altitude
Rises 03:38:58 0° 247° (WSW) 3,017 - -43.3°
Reaches altitude 10° 03:41:19 10° 253° (WSW) 2,051 - -42.7°
Maximum altitude 03:45:32 46° 327° (NNW) 914 - -41.8°
Exits shadow 03:49:37 15° 37° (NE) 2,060 12.1 -40.8°
Drops below altitude 10° 03:50:36 10° 40° (NE) 2,448 12.6 -40.6°
Sets 03:53:40 0° 46° (NE) 3,688 13.7 -39.9°
